www.pogodaiklimat.ru

Погода и климат >> Архив погоды >> Чили >> Pudahuel


ПОГОДА в Pudahuel

  • Прогноз погоды в Pudahuel
  • Монитор погоды в Pudahuel
  • Климат города

АРХИВ ПОГОДЫ в Pudahuel

Время (UTC), дата Ветер
(напр.,м/с)
 
Видим.   Явления Облачность Т
(С)
Тd
(С)
f
(%)
Тe
(С)
Тes
(С)
Комфортность P
(гПа)
Po
(гПа)
Тmin
(С)
Tmax
(С)
R
(мм)
R24
(мм)
S
(см)
12 17.04 СВ 2 2500 м дым 3/0
[Ac trans]
+11.9 +8.3 79 +11 +11 1018.8 962.8 +9.5
15 17.04 0 8000 м мгла 3/0
[Ac trans]
+19.4 +9.7 53 1017.2 962.5
18 17.04 Ю 5 10 км 3/0
[Ci fib]
+25.0 +8.3 35 +25 +31 комфорт 1014.8 961.2
21 17.04 Ю 5 10 км 1/0
[Ac trans]
+25.3 +5.1 27 +25 +25 комфорт 1013.8 960.4
00 18.04 Ю 2 10 км ясно +19.8 +8.7 49 +21 +21 комфорт 1015.2 960.7 +26.9
03 18.04 0 10 км ясно +15.8 +8.7 63 1016.6 961.4
06 18.04 0 8000 м дым ясно +12.5 +8.3 76 1016.9 961.2
09 18.04 0 7000 м дым 3/0
[Ac trans]
+9.7 +6.0 78 1016.7 960.3
12 18.04 С 2 8000 м дым 3/0
[Ac trans]
+8.6 +6.5 87 +7 +8 1016.8 960.2 +8.4
15 18.04 0 7000 м мгла 3/0
[Ac As]
+18.5 +9.3 55 1014.0 959.6
18 18.04 Ю 5 10 км ясно +24.9 +7.6 33 +25 +31 комфорт 1010.8 957.7
21 18.04 Ю 6 10 км 6/0
[Ac und Ci]
+25.1 +7.7 33 +25 +26 комфорт 1009.7 956.4
00 19.04 Ю 5 10 км 5/0
[Ac trans]
+17.9 +7.4 50 +18 +18 1012.8 958.2 +26.4
03 19.04 Ю 3 10 км 4/0
[Ac trans]
+15.2 +7.1 58 +15 +15 1014.6 959.3
06 19.04 0 10 км 4/0
[Ac trans]
+12.3 +6.7 69 1016.4 960.5
09 19.04 Ю 2 10 км ясно +10.9 +6.5 74 +10 +10 1016.9 960.6
12 19.04 С 2 10 км ясно +8.8 +6.0 83 +7 +7 1017.6 961.2 +7.3
15 19.04 0 8000 м дым ясно +18.4 +7.9 50 1015.4 960.9
18 19.04 Ю 2 10 км ясно +24.7 +7.1 32 +25 +34 комфорт 1011.8 958.6
21 19.04 Ю 6 10 км ясно +25.3 +6.9 31 +25 +26 комфорт 1011.4 958.3
00 20.04 Ю 3 10 км ясно +19.0 +7.8 48 +20 +20 1014.1 959.6 +26.7
03 20.04 0 10 км ясно +15.1 +7.6 61 1015.5 960.2
06 20.04 0 10 км ясно +11.4 +6.1 70 1016.0 959.9 0.0
09 20.04 С 2 8000 м дым ясно +9.0 +5.4 78 +8 +8 1016.4 959.8
12 20.04 штиль 0 7000 м дым ясно +8.3 +4.9 79 +8 +8 1017.7 961.0 +8.0
15 20.04 0 7000 м дым ясно +20.1 +7.6 44 1015.9 961.4
18 20.04 Ю 4 10 км ясно +24.8 +6.2 30 +25 +32 комфорт 1013.8 960.3
21 20.04 Ю 6 10 км ясно +25.8 +2.8 22 +25 +25 комфорт 1012.8 959.7
00 21.04 Ю 3 10 км ясно +20.0 +8.4 47 +21 +21 комфорт 1014.8 960.5 +26.9
03 21.04 С 2 10 км ясно +14.4 +7.9 65 +14 +14 1015.7 960.5
06 21.04 С 2 7000 м дым ясно +12.7 +7.7 72 +12 +12 1014.9 959.4
09 21.04 ЮВ 2 8000 м дым ясно +10.7 +6.3 74 +10 +10 1014.7 958.7
12 21.04 С 2 7000 м дым ясно +7.5 +4.3 80 +6 +6 1015.9 959.1 +7.4
15 21.04 0 7000 м мгла ясно +19.0 +7.3 47 1014.0 959.5
18 21.04 Ю 4 10 км ясно +25.4 +5.2 27 +25 +32 комфорт 1011.0 957.8
21 21.04 Ю 5 10 км ясно +25.9 +3.9 24 +25 +26 комфорт 1010.5 957.4
00 22.04 Ю 3 10 км ясно +19.6 +8.5 49 +21 +21 комфорт 1012.5 958.4 +27.1
03 22.04 0 10 км ясно +15.9 +8.7 62 1014.6 959.5
06 22.04 ЮВ 3 10 км ясно +13.3 +8.8 74 +12 +12 1016.1 960.4
09 22.04 штиль 0 10 км ясно +9.7 +6.9 83 +9 +9 1017.5 961.0
12 22.04 0 7000 м дым ясно +8.9 +5.8 81 1019.2 962.7 +8.0
15 22.04 0 8000 м дым ясно +18.4 +8.6 53 1017.9 963.0
18 22.04 Ю 4 10 км ясно +23.9 +7.2 34 +24 +31 комфорт 1014.5 961.0
21 22.04 ЮЗ 5 10 км ясно +23.9 +7.8 36 +24 +25 комфорт 1014.0 960.5
00 23.04 Ю 3 10 км ясно +19.6 +8.4 48 +21 +21 комфорт 1015.0 960.7 +24.9
03 23.04 СЗ 2 10 км ясно +14.9 +7.6 62 +15 +15 1016.0 960.6
06 23.04 СЗ 2 10 км ясно +11.2 +6.5 73 +10 +10 1016.7 960.6
09 23.04 0 10 км ясно +10.2 +7.3 82 1016.2 959.9
12 23.04 0 7000 м дым 8/0
[Ci]
+8.2 +5.2 81 1017.6 960.8 +7.8
15 23.04 0 7000 м дым 9/0
[Ac trans]
+16.1 +10.5 69 1015.2 960.1
18 23.04 ЮЗ 2 10 км 9/0
[Ac trans Cs]
+19.6 +8.6 49 +21 +27 комфорт 1015.0 960.7
21 23.04 Ю 3 10 км 9/0
[Ac trans Cs]
+20.7 +7.9 44 +22 +23 комфорт 1014.8 960.5
00 24.04 ЮВ 3 10 км 6/0
[Ac trans Ci fib]
+17.4 +9.7 61 +18 +18 1016.4 961.7 +21.7
03 24.04 0 10 км 6/0
[]
+14.3 +9.4 72 1017.3 961.9
06 24.04 0 10 км 5/0
[Ci fib]
+12.5 +8.6 77 1017.6 961.9
09 24.04 СВ 2 7000 м мгла 8/0
[]
+12.2 +8.1 76 +12 +12 1017.5 961.7

 

Местоположение метеостанции Pudahuel (Чили): широта -33.38 долгота -70.78 высота над уровнем моря 474 м.

В архиве по умолчанию представлена погода в Pudahuel за последнюю неделю. Архивные данные за месяц целиком и за предыдущие месяцы, начиная с января 2011 года, Вы можете получить, выбрав интересующий диапазон дат из раскрывающегося списка и нажав кнопку "Ввод!".


*Определитесь, кто Вы:
робот инопланетянин человек

Внимание! Время в таблицах - всемирное. Для получения местного времени необходимо прибавить поправку, которая в Pudahuel равна -4 ч.

Смотрите также архив погоды в соседних городах и на ближайших метеорологических станциях:

Погода в Santiago (Чили) (11 км)
Погода в San Antonio (Чили) (79 км)
Погода в Santo Domingo (Чили) (83 км)
Погода в Punta Angeles (Чили) (89 км)
Погода в Curico (Чили) (181 км)
Погода в Mendoza (Аргентина) (196 км)
Погода в San Martin (Аргентина) (223 км)
Погода в San Rafael (Аргентина) (257 км)
Погода в Malargue (Аргентина) (260 км)
Погода в San Juan (Аргентина) (313 км)

Пояснения к столбцам:

Ветер - указаны скорость ветра в м/с - средняя за 10 мин, порывы в срок и между сроками (в фигурных скобках) и направление, откуда дует ветер: С - северный, СВ - северо-восточный, В - восточный, ЮВ - юго-восточный, Ю - южный, ЮЗ - юго-западный, З - западный, СЗ - северо-западный.
Видимость - горизонтальная дальность видимости в метрах или километрах. При видимости от 1 до 10 км при отсутствии осадков обычно наблюдается дымка, при ухудшении видимости до 1 км и менее - туман. В сухую погоду видимость может ухудшаться дымом, пылью или мглою.
Явления - указаны атмосферные явления, наблюдавшиеся в срок или в последний час перед сроком; фигурными скобками обозначены явления, наблюдавшиеся между сроками (за 1-3 часа до срока); квадратными скобками обозначены град или гололедные отложения с указанием их диаметра в мм.
Облачность - указаны через наклонную черту общая и нижняя облачность в баллах и высота нижней границы облаков в метрах; квадратными скобками обозначены формы облаков: Ci - перистые, Cs - перисто-слоистые, Cc - перисто-кучевые, Ac - высококучевые, As - высокослоистые, Sc - слоисто-кучевые, Ns - слоисто-дождевые, Cu - кучевые, Cb - кучево-дождевые. Подробнее классификацию облаков см. в Атласе облаков (PDF).
T - Температура воздуха - температура, измеренная на высоте 2 м над землей.
Td - Температура точки росы - температура, при понижении до которой содержащийся в воздухе водяной пар достигнет насыщения.
f - Относительная влажность воздуха - влажноcть воздуха, измеренная на высоте 2 м над землей.
Te - Эффективная температура - температура, которую ощущает одетый по сезону человек в тени. Характеристика душности погоды. При расчете учитывается влияние влажности воздуха и скорости ветра на теплоощущения человека.
Tes - Эффективная температура на солнце - температура, которую ощущает человек, с поправкой на солнечный нагрев. Характеристика знойности погоды. Зависит от высоты солнца над горизонтом, облачности и скорости ветра. Ночью, в пасмурную погоду, а также при ветре 12 м/с и более поправка равна нулю.
P - Атмосферное давление - приведенное к уровню моря атмосферное давление.
Po - Атмосферное давление - измеренное на уровне метеостанции атмосферное давление.
Tmin - Минимальная температура - минимум температуры воздуха на высоте 2 м над землей.
Tmax - Максимальная температура - максимум температуры воздуха на высоте 2 м над землей.
R - Количество осадков - Количество выпавших осадков за период времени, мм. При наведении курсора мыши на число - период времени, за который выпало указанное количество осадков.
R24 - Количество осадков - Количество выпавших осадков за 24 часа, мм.
S - Снежный покров - Высота снежного покрова, см. При наведении курсора мыши на число - состояние снежного покрова и степень покрытия местности в баллах.